Preview of NWS' New Version of Forecast
This preview is not operational and should not be used for support decisions.

Regional Weather Roundup (RWR)

Issued by Gray - Portland, ME (GYX)

                            
000
ASUS41 KGYX 181110
RWRGYX
WEATHER ROUNDUP FOR MAINE AND NEW HAMPSHIRE
NATIONAL WEATHER SERVICE GRAY ME
700 AM EDT SUN AUG 18 2019

MEZ002-005-006-010-012-015-018-020-021-024-026-027-029-181200-
MAINE
  
CITY           SKY/WX    TMP DP  RH WIND       PRES   REMARKS
PORTLAND       FOG       67  65  93 CALM      30.01R VSB 1            
SANFORD        FOG       65  65 100 W3        30.01S VSB<1/4          
BAR HARBOR     CLOUDY    62  62 100 CALM      30.03S                  
WISCASSET      CLOUDY    65  64  97 CALM      30.01S FOG              
ROCKLAND       CLOUDY    64  64 100 VRB5      30.01S FOG              
FRYEBURG       CLOUDY    65  64  97 NW3       30.02R                  
LEWISTONAUBURN FOG       65  65 100 CALM      30.02R VSB 1/4          
AUGUSTA        CLOUDY    65  65 100 NE3       30.02R FOG              
WATERVILLE     CLOUDY    65  64  97 CALM      29.99S                  
BANGOR         CLOUDY    64  63  96 SE3       30.02S                  
GREENVILLE       N/A     61  61 100 CALM      30.01S                  
MILLINOCKET    CLOUDY    64  62  93 VRB3      30.03R                  
HOULTON        LGT RAIN  64  62  93 CALM      30.00F                  
PRESQUE ISLE   CLOUDY    64  63  94 CALM      30.03R                  
FRENCHVILLE    LGT RAIN  62  61  96 SE6       30.02R VSB 1/4          
CARIBOU        CLOUDY    64  62  93 S6        30.01S                  
$$

NHZ002-005-008-009-011-012-014-181200-
NEW HAMPSHIRE
  
CITY           SKY/WX    TMP DP  RH WIND       PRES   REMARKS
PORTSMOUTH     FOG       66  66 100 CALM      30.00R VSB 5/8          
ROCHESTER      CLOUDY    67  65  93 CALM      30.01R FOG              
NASHUA         FOG       66  66 100 CALM      30.01S VSB 1/4          
MANCHESTER     FOG       67  67 100 NE5       29.99S VSB 1/2          
CONCORD        CLOUDY    66  64  93 SW3       30.01R                  
LACONIA        CLOUDY    66  64  93 SW7       30.02R                  
PLYMOUTH       FAIR      62  61  96 CALM      30.02R                  
BERLIN         FAIR      64  62  93 CALM      30.02S                  
WHITEFIELD     CLOUDY    65  63  93 S3        30.03R                  
JAFFREY        FOG       64  62  93 W3        30.04S VSB 1/2          
KEENE          CLOUDY    66  65  96 CALM      30.03R                  
LEBANON        CLOUDY    67  62  84 CALM      30.01S FOG              
MT WASHINGTON  FOG       50  50 100 NW32        N/A  VSB 1/16         
$$

VTZ005-007-008-181200-
VERMONT
  
CITY           SKY/WX    TMP DP  RH WIND       PRES   REMARKS
ST JOHNSBURY     N/A     65  65 100 MISG      30.00R                  
MONTPELIER     CLOUDY    62  62 100 CALM      30.06R FOG              
BURLINGTON     FAIR      65  62  90 CALM      30.00R                  
$$

MAZ007-012-024-CTZ003-RIZ002-NYZ038-NYZ072-181200-
SOUTHERN NEW ENGLAND AND NY
  
CITY           SKY/WX    TMP DP  RH WIND       PRES   REMARKS
BOSTON         CLOUDY    70  67  90 NE5       30.00R FOG              
WORCESTER      FAIR      65  65 100 SW8       30.03R                  
NANTUCKET      FOG       70  70 100 W3        30.01R VSB 1/2          
PROVIDENCE     PTSUNNY   72  71  97 SW6       30.00S                  
HARTFORD       MOCLDY    66  64  93 CALM      30.02R FOG              
ALBANY         FOG       67  65  93 CALM      30.02R VSB 1/2          
NEW YORK CITY  MOCLDY    75  71  87 NE6       30.00R                  
$$

ANZ081-ANZ082-ANZ150-NHZ014-MEZ023>029-181200-
COASTAL MARINE OBSERVATIONS
  
STATION/POSITION TIME  TEMP    WIND        PRES    WAVE
                       AIR SEA DIR/SP/G            HT/PER
                 (UTC) (F)     (DEG/KT/KT) (MB)    (FT/S)
MATINICUS ROCK   1050   60                 1015.6F
ISLE OF SHOALS   1000   65      CALM  /  1 1015.8R
JEFFREYS LEDGE   1038      68                N/A     2/ 7
CASHES LEDGE BUO 1050   65 65  270/  4/  4 1016.3R   2/ 7
GEORGES BANK BUO 1050   72 70  110/  2/  4 1016.2R   3/ 7
$$

.............KEY..............
   WCI - WIND CHILL
   TC  - TEMPERATURE IN CELSIUS
   VSB - VISIBILITY IN MILES
   HX  - HEAT INDEX
   FAIR- INDICATES FEW OR NO CLOUDS BELOW 12,000 FT, WITH NO 
         SIGNIFICANT WEATHER AND/OR OBSTRUCTIONS TO VISIBILITY.